Location: Absher
(46.5583°N, 107.9840°W)
Time: 19:55:35
(UTC+00:00)

QB50P2 - Pass Details

Date: 08 April 2023
Orbit: 581 x 596 km, 98.0° (Epoch: 31 May)

Event Time Altitude Azimuth Distance (km) Brightness Sun altitude
Rises 08:47:25 0° 17° (NNE) 2,826 ? -32.4°
Reaches altitude 10° 08:49:38 10° 21° (NNE) 1,918 ? -32.2°
Enters shadow 08:51:35 26° 32° (NNE) 1,168 ? -32.0°
